Aérodrome :
LOGIN :

S'inscrire | Disclaimer

   EN    FR    IT 

 










Légende :    VFR   VFR Marginal   IFR   IFR Intensif   IFR Très Intensif
Visi : 
Plafond : 
>= 8 km
>= 3000ft
5 à 8 km
1000 à 3000 ft
1500m à 5 km
500 à 1000 ft
800 à 1500m
200 à 500 ft
< 800m
< 200 ft
Symboles :   Orages  Brouillard  Fortes neiges  Fortes précipitations  Vent > 20 kt
SIGMETs :   Divers  Orages  Givrage  Turbulence  Onde Orograph.  Cendres Volcan.







- Altitude de l'aérodrome : 135 ft
- Code IATA : EDI
- Voir les cartes d'approche


EGPH - Edinburgh

DERNIER METAR :
  • 240020Z 21003KT CAVOK 13/11 Q1016

METARs EXPIRÉS :
  • 232350Z VRB03KT CAVOK 13/11 Q1016
  • 232320Z 26002KT 9999 SCT047 14/12 Q1016
  • 232250Z 26005KT 9999 OVC047 14/13 Q1016
  • 232220Z 26004KT 230V310 9999 SCT046 14/13 Q1016
  • 232150Z VRB01KT 9999 SCT045 14/13 Q1016

TAF TAF EGPH
Valide du 24 à 00h jusqu'au 25 à 00h UTC


232303Z 2400/2424 VRB03KT 9999 FEW030 SCT045
PROB30 2400/2407 4000 BR
BECMG 2408/2411 08010KT
ATIS : +44 131 339 2823
Pas de NOTAMs connus pour ce terrain.



MET'MAP, la Météo Aéronautique d'un coup d'oeil ! - Copyright ORBIFLY Décembre 2007 - Disclaimer

ORBIFLY MET'MAP TEAM :

Programmation & Développement : Alexandra Zaïnal
Conception & Développement : Baudouin d'Aumeries
Co-Programmation & Développement : Marc-Olivier Méhu
Soutien technique & logistique : Manuel Goepfert

Contact : metmap@orbifly.com




SOURCES & CREDITS :

   NOAA